[[{"header":{"parameterUnit":"m.s-1","parameterCategory":1,"la1":30.2991,"la2":30.254,"lo1":-89.0895,"lo2":-89.0444,"dy":0.0017,"dx":0.0017,"nx":28,"ny":28,"refTime":"2024-07-31T09:00:00:Z","depth":0,"parameterNumber":2,"parameterNumberName":"U-component_of_WINDS"},"data":[0,0,0,0,0,0,0,0,0,0,0,0,0,0,0,0,0,0,0,0,0,0,0,0,0,0,0,0,0,0,0,0,0,0,0,0,0,0,0,0,0,0,0,0,0,0,0,0,0,0,0,0,0,0,0,0,0,0,0.5157,0.5158,0,0.5267,0.5269,0.527,0.5303,0.5302,0.5302,0.5301,0.5414,0.5417,0.542,0,0,0,0,0,0,0,0,0,0,0,0,0,0.4969,0.4973,0.5156,0.5158,0.5159,0.5267,0.5269,0.527,0.5303,0.5302,0.5301,0.5301,0.5412,0.5417,0.5421,0,0,0,0,0,0,0,0,0,0,0,0,0,0.5062,0.4974,0.5156,0.5189,0.5193,0.5267,0.5269,0.5271,0.5303,0.5302,0.5301,0.53,0.5411,0.5416,0.5421,0.5471,0,0,0.5437,0.544,0,0,0,0,0,0,0,0,0.5057,0.5069,0.5182,0.5186,0.5191,0.527,0.5244,0.5338,0.5303,0.5261,0.5301,0.53,0.5366,0.5375,0.5398,0.5476,0.5481,0.5438,0.5441,0.5443,0.5445,0,0,0,0,0,0,0,0.5051,0.5065,0.52,0.5184,0.5189,0.5196,0.5208,0.5262,0.5317,0.5265,0.5267,0.528,0.5369,0.5393,0.5401,0.5483,0.5438,0.5443,0.5446,0.5448,0.5603,0.5604,0,0,0,0,0,0,0.5039,0.5059,0.5197,0.5204,0.5121,0.52,0.5214,0.5246,0.5317,0.5327,0.5281,0.5281,0.5384,0.5395,0.5405,0.5466,0.5443,0.5448,0.5451,0.5602,0.5604,0.5605,0,0,0,0,0,0,0.5035,0.5051,0.5192,0.5132,0.5151,0.5204,0.524,0.5248,0.5273,0.5329,0.5339,0.5295,0.5384,0.5398,0.5454,0.547,0.5451,0.5456,0.5601,0.5603,0.5604,0.5589,0,0,0,0,0,0,0.5029,0.5049,0.507,0.5132,0.5154,0.524,0.5241,0.5251,0.5282,0.5283,0.5345,0.5355,0.5384,0.5445,0.5459,0.5477,0.546,0.56,0.5602,0.5604,0.5588,0.559,0.5591,0,0,0,0,0,0.5023,0.5062,0.5071,0.5087,0.5181,0.5241,0.5253,0.5287,0.5283,0.5303,0.5339,0.5353,0.5466,0.5451,0.5466,0.5486,0.5599,0.5601,0.5603,0.5588,0.5589,0.5591,0,0,0,0,0,0,0.5001,0.5071,0.5082,0.5143,0.5185,0.5247,0.5274,0.5288,0.5334,0.5333,0.5372,0.5386,0.5439,0.5468,0.545,0.5536,0.5533,0.5538,0.5515,0.5518,0.5519,0.5511,0.5464,0,0,0,0,0,0.5003,0.5047,0.5106,0.5153,0.5174,0.522,0.5248,0.5269,0.5316,0.5334,0.5374,0.5417,0.5462,0.5492,0.5536,0.5592,0.5605,0.5613,0.5614,0.5615,0.5619,0.5648,0.5652,0.5612,0.5612,0.5612,0,0,0.5008,0.5052,0.5078,0.515,0.5186,0.5229,0.5235,0.5282,0.5314,0.5341,0.5396,0.5426,0.5477,0.5532,0.5559,0.5558,0.5633,0.5618,0.5618,0.5622,0.565,0.5654,0.5657,0.5613,0.5613,0.5613,0,0,0.504,0.5078,0.5121,0.5156,0.521,0.524,0.5249,0.5308,0.5329,0.5384,0.5404,0.5442,0.552,0.5555,0.5582,0.5622,0.5636,0.5635,0.5643,0.567,0.5673,0.5676,0.5689,0.5693,0.5639,0.5639,0.5639,0,0.504,0.5107,0.5141,0.5186,0.5216,0.5241,0.5284,0.5316,0.5381,0.5401,0.54,0.5495,0.5531,0.5594,0.5603,0.5625,0.5636,0.5629,0.567,0.5673,0.5677,0.5689,0.5694,0.5639,0.5639,0.5639,0.5639,0,0.5103,0.5149,0.5177,0.5238,0.5271,0.5315,0.5354,0.5383,0.54,0.5429,0.5483,0.5527,0.558,0.5596,0.5614,0.566,0.5657,0.5662,0.566,0.5679,0.5691,0.5697,0.5638,0.5638,0.5638,0.5638,0,0,0.5127,0.5204,0.5214,0.5241,0.53,0.5336,0.5378,0.5429,0.5453,0.5496,0.5531,0.5594,0.5598,0.5629,0.5651,0.5675,0.5701,0.5677,0.5679,0.5679,0.5751,0.5747,0.5752,0.571,0.5711,0.5712,0.5746,0,0.5165,0.5244,0.5274,0.5338,0.5379,0.5401,0.5438,0.5477,0.5504,0.5542,0.5571,0.5615,0.5617,0.5636,0.566,0.5693,0.5716,0.5691,0.5742,0.5744,0.5729,0.5759,0.5755,0.5786,0.5751,0.5752,0.5753,0,0.5222,0.5264,0.5332,0.5383,0.5401,0.5434,0.5481,0.5518,0.5561,0.5579,0.5611,0.5631,0.5674,0.5668,0.5727,0.5708,0.5731,0.5749,0.5751,0.5758,0.575,0.5765,0.5797,0.5801,0.5761,0.576,0.576,0,0.5231,0.5305,0.5354,0.5376,0.5438,0.546,0.5486,0.5529,0.5556,0.5597,0.5615,0.566,0.5685,0.5718,0.5749,0.5741,0.5804,0.58,0.5818,0.5817,0.5832,0.583,0.5867,0.5846,0.5846,0.5846,0.5846,0,0.527,0.531,0.5358,0.5389,0.5433,0.5466,0.5508,0.5536,0.5573,0.5607,0.5629,0.5661,0.5699,0.5735,0.5758,0.5802,0.5813,0.5827,0.5833,0.5826,0.5824,0.5841,0.584,0.5847,0.5847,0.5846,0.5846,0,0.5289,0.5323,0.5377,0.543,0.5444,0.5474,0.5518,0.5547,0.5574,0.5617,0.5629,0.567,0.5713,0.5746,0.5802,0.5817,0.5863,0.587,0.5849,0.5852,0.5867,0.5865,0.5917,0.5924,0.5898,0.5898,0.5899,0,0.5312,0.5343,0.5398,0.5423,0.5449,0.5488,0.5516,0.5548,0.5576,0.5625,0.5648,0.5692,0.5729,0.5796,0.583,0.5872,0.588,0.5894,0.5886,0.5876,0.5879,0.5876,0.5879,0.5896,0.5896,0.5896,0.5896,0,0.5349,0.5363,0.5403,0.5447,0.5479,0.5516,0.5553,0.5571,0.5609,0.5639,0.5683,0.5711,0.5767,0.581,0.5855,0.588,0.5894,0.5898,0.5904,0.5897,0.5883,0.5889,0.5851,0.5897,0.5897,0.5897,0.5897,0.5897,0.537,0.5397,0.544,0.5482,0.5512,0.5545,0.5575,0.5604,0.5641,0.5689,0.5705,0.575,0.5789,0.585,0.5876,0.591,0.591,0.592,0.5922,0.5924,0.5922,0.5877,0.5918,0.5918,0.5918,0.5918,0.5918,0,0.5407,0.5435,0.5473,0.5523,0.5555,0.5565,0.5605,0.5631,0.567,0.5706,0.5741,0.579,0.583,0.5866,0.5908,0.5928,0.5935,0.5938,0.5937,0.5942,0.592,0.591,0.5932,0.5932,0.5932,0.5932,0.5932,0.5932,0.543,0.5477,0.5495,0.5556,0.5583,0.5627,0.5649,0.5678,0.5706,0.576,0.5794,0.5817,0.5852,0.5895,0.5932,0.5941,0.5955,0.5956,0.5967,0.5946,0.5944,0.5943,0.5933,0.5959,0.5959,0.5987,0.5987,0.5987]},{"header":{"parameterUnit":"m.s-1","parameterCategory":1,"la1":30.2991,"la2":30.254,"lo1":-89.0895,"lo2":-89.0444,"dy":0.0017,"dx":0.0017,"nx":28,"ny":28,"refTime":"2024-07-31T09:00:00:Z","depth":0,"parameterNumber":3,"parameterNumberName":"V-component_of_WINDS"},"data":[0,0,0,0,0,0,0,0,0,0,0,0,0,0,0,0,0,0,0,0,0,0,0,0,0,0,0,0,0,0,0,0,0,0,0,0,0,0,0,0,0,0,0,0,0,0,0,0,0,0,0,0,0,0,0,0,0,0,4.2591,4.2591,0,4.2574,4.2574,4.2574,4.2559,4.2559,4.2559,4.2559,4.254,4.2539,4.2539,0,0,0,0,0,0,0,0,0,0,0,0,0,4.2604,4.2604,4.2591,4.2591,4.259,4.2575,4.2574,4.2574,4.2559,4.2559,4.2559,4.2559,4.254,4.2539,4.2539,0,0,0,0,0,0,0,0,0,0,0,0,0,4.2594,4.2604,4.2591,4.2581,4.258,4.2575,4.2574,4.2574,4.2559,4.2559,4.2559,4.2559,4.254,4.2539,4.2539,4.2541,0,0,4.2537,4.2537,0,0,0,0,0,0,0,0,4.2595,4.2594,4.2583,4.2582,4.2581,4.2569,4.2572,4.2563,4.2559,4.2567,4.2559,4.2559,4.2549,4.2548,4.2545,4.254,4.2539,4.2537,4.2537,4.2537,4.2537,0,0,0,0,0,0,0,4.2596,4.2594,4.2584,4.2583,4.2581,4.2576,4.2574,4.257,4.256,4.2566,4.2565,4.2564,4.2549,4.2546,4.2545,4.2539,4.2537,4.2537,4.2536,4.2536,4.253,4.253,0,0,0,0,0,0,4.2598,4.2595,4.2585,4.2584,4.2587,4.2576,4.2574,4.2573,4.256,4.2558,4.2564,4.2563,4.2547,4.2546,4.2544,4.2543,4.2537,4.2536,4.2536,4.253,4.253,4.253,0,0,0,0,0,0,4.2599,4.2598,4.2585,4.2589,4.2587,4.2576,4.2575,4.2573,4.257,4.2558,4.2556,4.2564,4.2547,4.2545,4.2541,4.2543,4.2536,4.2535,4.253,4.253,4.253,4.2543,0,0,0,0,0,0,4.2599,4.2598,4.26,4.2589,4.2587,4.2584,4.2575,4.2572,4.2569,4.2568,4.2557,4.2555,4.2546,4.2542,4.2541,4.2542,4.2535,4.2529,4.253,4.253,4.2543,4.2544,4.2545,0,0,0,0,0,4.26,4.2604,4.26,4.2599,4.2589,4.2584,4.2583,4.2574,4.257,4.257,4.2562,4.2555,4.2543,4.2542,4.254,4.2541,4.2529,4.253,4.253,4.2542,4.2544,4.2545,0,0,0,0,0,0,4.2615,4.2603,4.2598,4.26,4.2593,4.2582,4.2583,4.2576,4.257,4.2569,4.2558,4.2555,4.2552,4.2546,4.2545,4.254,4.2535,4.2535,4.2544,4.2546,4.2547,4.2548,4.2535,0,0,0,0,0,4.2619,4.2617,4.2606,4.2608,4.2605,4.2594,4.2592,4.2585,4.2578,4.2575,4.2567,4.2559,4.2552,4.2549,4.2543,4.2541,4.2537,4.2541,4.2542,4.2543,4.2543,4.2539,4.254,4.2531,4.2531,4.2531,0,0,4.2626,4.2619,4.2619,4.2611,4.2605,4.2601,4.2592,4.259,4.2586,4.2574,4.257,4.2563,4.2553,4.255,4.2548,4.2545,4.2544,4.2543,4.2544,4.2544,4.2539,4.254,4.2541,4.2532,4.2531,4.2531,0,0,4.2637,4.2633,4.2633,4.2627,4.2618,4.2611,4.2611,4.26,4.2595,4.2591,4.258,4.2575,4.2566,4.2558,4.2554,4.2559,4.2551,4.2557,4.2563,4.2559,4.256,4.256,4.256,4.256,4.2557,4.2557,4.2557,0,4.2648,4.2643,4.2634,4.2631,4.2627,4.2615,4.2614,4.2608,4.2598,4.2594,4.2591,4.2577,4.257,4.2563,4.2564,4.2561,4.2559,4.2558,4.256,4.2561,4.2561,4.2561,4.2561,4.2558,4.2558,4.2557,4.2557,0,4.2655,4.2652,4.2652,4.2642,4.2638,4.2636,4.2625,4.2621,4.2614,4.2606,4.26,4.259,4.2581,4.2579,4.2572,4.257,4.2568,4.2563,4.2557,4.2563,4.2562,4.2562,4.2559,4.2558,4.2558,4.2558,0,0,4.2677,4.266,4.266,4.2654,4.2643,4.2639,4.2635,4.2626,4.2622,4.2615,4.261,4.2601,4.2595,4.2589,4.2581,4.2578,4.2579,4.2572,4.2572,4.2572,4.2574,4.2577,4.2577,4.2574,4.2574,4.2574,4.2574,0,4.2685,4.2679,4.2669,4.2665,4.2661,4.2648,4.2644,4.2636,4.2628,4.2621,4.2611,4.2604,4.2598,4.2594,4.259,4.258,4.2579,4.258,4.2567,4.2567,4.257,4.2577,4.2582,4.2582,4.2574,4.2574,4.2574,0,4.2695,4.2687,4.2683,4.2669,4.2667,4.2664,4.2653,4.2648,4.2636,4.263,4.2623,4.2613,4.2606,4.2601,4.259,4.259,4.2584,4.2578,4.2578,4.2576,4.2571,4.2574,4.2583,4.2582,4.2574,4.2574,4.2574,0,4.2709,4.2698,4.2693,4.2689,4.2673,4.267,4.2663,4.2652,4.2646,4.2636,4.2632,4.2621,4.2615,4.2606,4.2594,4.2591,4.2583,4.2577,4.2576,4.2576,4.2575,4.2575,4.2581,4.2572,4.2572,4.2572,4.2572,0,4.2718,4.2716,4.2699,4.2696,4.2692,4.2679,4.2675,4.2667,4.2656,4.265,4.2638,4.2632,4.2616,4.2608,4.2597,4.2588,4.2586,4.2579,4.2576,4.258,4.2581,4.2576,4.2575,4.2572,4.2572,4.2572,4.2572,0,4.2734,4.2722,4.2716,4.2701,4.2697,4.2695,4.2681,4.2676,4.2667,4.2659,4.2656,4.264,4.2629,4.2616,4.2601,4.2593,4.2585,4.2581,4.2589,4.2587,4.2586,4.2586,4.2589,4.2587,4.2581,4.2581,4.2581,0,4.274,4.2738,4.2722,4.2717,4.2711,4.2703,4.2697,4.2684,4.2678,4.2663,4.2659,4.2648,4.2638,4.262,4.2606,4.2594,4.2589,4.2591,4.2587,4.259,4.2587,4.2587,4.2586,4.2592,4.2592,4.2592,4.2592,0,4.2752,4.2746,4.2739,4.2728,4.2721,4.2712,4.2702,4.2698,4.2683,4.2676,4.2665,4.2657,4.264,4.2628,4.2613,4.2604,4.2594,4.2593,4.2592,4.2595,4.2599,4.2595,4.259,4.2593,4.2593,4.2593,4.2593,4.2593,4.2762,4.2759,4.2746,4.2737,4.2728,4.2719,4.2713,4.2703,4.2694,4.268,4.2672,4.266,4.2646,4.2625,4.2616,4.2605,4.2602,4.2601,4.26,4.26,4.26,4.2601,4.2603,4.2603,4.2603,4.2603,4.2603,0,4.2772,4.2764,4.2755,4.2742,4.2734,4.2726,4.2714,4.2708,4.2698,4.2686,4.2676,4.2662,4.2649,4.2634,4.2619,4.2613,4.2609,4.261,4.261,4.2607,4.2605,4.2607,4.2614,4.2614,4.2614,4.2614,4.2614,4.2614,4.2777,4.2769,4.2762,4.2749,4.274,4.2729,4.2722,4.2713,4.2703,4.2688,4.2677,4.2667,4.2653,4.2637,4.2624,4.262,4.2615,4.2617,4.2611,4.2609,4.2608,4.2607,4.2609,4.2616,4.2616,4.2614,4.2614,4.2614]}]]